AA6MV Weather Reports


time (UTC)temp
F
wind
direction
speed
knots
gust
knots
rain 1hr
in
rain 24hr
in
rain mn
in
humidity
%
barometer
mb
20260510123010 60 113 0.0 0.0 0.00 0.00 0.00 28 1004.1
20260510121505 60 113 0.0 0.0 0.00 0.00 0.00 26 1003.9
20260510113109 62 110 0.0 0.0 0.00 0.00 0.00 24 1003.7
20260510113000 63 110 0.0 0.0 0.00 0.00 0.00 24 1003.7
20260510111614 63 110 0.0 0.0 0.00 0.00 0.00 24 1003.5
20260510104524 64 97 0.0 0.0 0.00 0.00 0.00 23 1003.3
20260510103022 64 96 0.0 0.0 0.00 0.00 0.00 23 1003.3
20260510101519 64 96 0.0 0.0 0.00 0.00 0.00 23 1003.3
20260510094507 66 91 0.0 0.0 0.00 0.00 0.00 21 1003.0
20260510093006 67 91 0.0 0.0 0.00 0.00 0.00 21 1002.9
20260510091505 68 91 0.0 0.0 0.00 0.00 0.00 20 1002.8
20260510084547 70 100 0.0 1.7 0.00 0.00 0.00 19 1002.7
20260510083037 71 103 0.0 3.5 0.00 0.00 0.00 18 1002.8
20260510081505 71 112 0.0 5.2 0.00 0.00 0.00 18 1002.9
20260510080005 71 96 0.0 4.3 0.00 0.00 0.00 18 1003.0
20260510074505 71 131 0.0 3.5 0.00 0.00 0.00 18 1003.1
20260510071525 69 123 0.0 2.6 0.00 0.00 0.00 19 1003.3
20260510070027 68 108 0.0 0.0 0.00 0.00 0.00 20 1003.2
20260510064534 66 118 0.0 0.0 0.00 0.00 0.00 22 1003.2
20260510061557 63 238 0.0 0.0 0.00 0.00 0.00 25 1003.2
20260510060043 64 244 0.0 0.0 0.00 0.00 0.00 24 1003.0
20260510054537 65 236 0.0 0.0 0.00 0.00 0.00 22 1003.1
20260510053132 68 155 0.0 0.0 0.00 0.00 0.00 20 1002.9
20260510051506 70 126 0.0 0.0 0.00 0.00 0.00 18 1002.8
20260510050017 72 124 0.0 0.0 0.00 0.00 0.00 16 1002.8
20260510044632 74 124 0.0 0.0 0.00 0.00 0.00 16 1002.7
20260510043051 75 124 0.0 0.0 0.00 0.00 0.00 15 1002.5
20260510041547 76 124 0.0 0.0 0.00 0.00 0.00 15 1002.4
20260510040042 76 119 0.0 0.9 0.00 0.00 0.00 15 1002.1
20260510034538 76 122 0.0 0.0 0.00 0.00 0.00 15 1001.9
20260510033036 76 108 0.0 0.0 0.00 0.00 0.00 15 1001.7
20260510031532 77 103 0.0 0.0 0.00 0.00 0.00 15 1001.5
20260510030036 78 131 0.0 0.0 0.00 0.00 0.00 14 1001.3
20260510024525 79 112 0.0 0.0 0.00 0.00 0.00 14 1001.2
20260510023018 81 110 0.0 0.0 0.00 0.00 0.00 13 1000.9
20260510021547 82 96 0.0 3.5 0.00 0.00 0.00 12 1000.7
20260510020042 84 89 1.7 6.1 0.00 0.00 0.00 12 1000.5
20260510014543 85 88 0.0 4.3 0.00 0.00 0.00 11 1000.2
20260510013150 86 86 0.0 7.0 0.00 0.00 0.00 11 1000.2
20260510011556 87 113 1.7 7.0 0.00 0.00 0.00 11 1000.1
20260510004547 88 153 3.5 12.2 0.00 0.00 0.00 10 999.2
20260510003046 88 52 2.6 8.7 0.00 0.00 0.00 10 1000.0
20260510001539 86 30 0.0 9.6 0.00 0.00 0.00 10 1000.0
20260510000040 88 27 2.6 7.0 0.00 0.00 0.00 9 1000.1
20260509234550 90 15 1.7 4.3 0.00 0.00 0.00 9 1000.2
20260509233050 89 53 0.0 1.7 0.00 0.00 0.00 9 1000.3
20260509231539 90 114 1.7 4.3 0.00 0.00 0.00 9 1000.3
20260509230037 91 17 1.7 9.6 0.00 0.00 0.00 9 1000.5
20260509224532 91 36 0.0 7.8 0.00 0.00 0.00 10 1000.5
20260509223026 91 326 1.7 6.1 0.00 0.00 0.00 10 1000.8
20260509221528 92 52 0.0 2.6 0.00 0.00 0.00 9 1001.1
20260509220019 92 160 0.0 4.3 0.00 0.00 0.00 10 1001.4
20260509214514 90 341 0.9 6.1 0.00 0.00 0.00 10 1001.7
20260509213013 90 97 0.0 3.5 0.00 0.00 0.00 9 1002.0
20260509211509 89 326 0.0 7.0 0.00 0.00 0.00 10 1002.3
20260509210007 90 6 1.7 7.8 0.00 0.00 0.00 9 1002.5
20260509204623 88 60 1.7 7.0 0.00 0.00 0.00 9 1002.8
20260509203021 88 39 4.3 10.4 0.00 0.00 0.00 10 1003.0
20260509201508 89 338 0.9 7.8 0.00 0.00 0.00 10 1003.2
20260509200004 88 89 0.0 7.8 0.00 0.00 0.00 11 1003.6
20260509194524 87 68 1.7 10.4 0.00 0.00 0.00 11 1003.7
20260509193019 87 359 0.0 5.2 0.00 0.00 0.00 11 1003.9
20260509191503 87 56 0.9 6.1 0.00 0.00 0.00 11 1004.0
20260509190002 87 32 3.5 7.0 0.00 0.00 0.00 12 1004.2
20260509184601 88 116 0.0 2.6 0.00 0.00 0.00 12 1004.4
20260509183058 87 65 0.9 7.0 0.00 0.00 0.00 13 1004.5
20260509183014 87 82 0.9 7.0 0.00 0.00 0.00 12 1004.5
20260509181602 86 29 0.0 7.0 0.00 0.00 0.00 13 1004.8
20260509180153 86 127 0.0 6.1 0.00 0.00 0.00 13 1005.0
20260509174539 85 103 0.9 7.0 0.00 0.00 0.00 13 1005.2
20260509173037 85 248 0.0 8.7 0.00 0.00 0.00 13 1005.2
20260509171530 84 100 1.7 7.0 0.00 0.00 0.00 14 1005.4
20260509170028 84 113 0.0 5.2 0.00 0.00 0.00 15 1005.3
20260509164601 82 98 0.0 5.2 0.00 0.00 0.00 15 1005.3
20260509163048 81 81 1.7 6.1 0.00 0.00 0.00 16 1005.3
20260509160138 79 75 0.9 4.3 0.00 0.00 0.00 19 1005.5
20260509154527 78 75 1.7 5.2 0.00 0.00 0.00 20 1005.6
20260509153023 77 87 0.9 5.2 0.00 0.00 0.00 22 1005.7
20260509150024 74 73 0.0 3.5 0.00 0.00 0.00 23 1005.8
20260509144524 73 70 0.9 3.5 0.00 0.00 0.00 25 1005.8
20260509143015 71 88 0.0 2.6 0.00 0.00 0.00 28 1005.9
20260509140017 65 150 0.0 0.0 0.00 0.00 0.00 36 1005.9
20260509134506 61 157 0.0 0.0 0.00 0.00 0.00 40 1005.7
20260509133105 59 157 0.0 0.0 0.00 0.00 0.00 40 1005.6
20260509130047 58 157 0.0 0.0 0.00 0.00 0.00 36 1005.4
20260509124524 59 156 0.0 0.0 0.00 0.00 0.00 34 1005.2